This demonstration page uses our WeatherBlox Daily Observations layout. Learn more.

Hourly Observations for July 5, 2020

Temp ( °F °C ) Dew Point ( °F °C ) Humidity (%) Winds ( mph kmh ) Pressure ( in mb ) Visibility ( mi km ) Precip ( " mm )
12:53 am 00:53 Clear 73 22.8 68 20 84 84 Calm 29.96 1015 9 14.48406 0 0
1:53 am 01:53 Clear 71 21.7 68 20 90 90 Calm 29.96 1014 7 11.26538 0 0
2:53 am 02:53 Clear 70 21.1 68 20 93 93 Calm 29.95 1014 7 11.26538 0 0
3:53 am 03:53 Clear with Mist and Fog 69 20.6 67 19.4 93 93 Calm 29.95 1014 6 9.65604 0 0
4:53 am 04:53 Clear with Mist and Fog 68 20 67 19.4 96 96 Calm 29.95 1014 3 4.82802 0 0
5:40 am 05:40 Clear with Mist and Fog 67 19.4 66 18.9 97 97 Calm 29.97 1015 2.5 4.02335 0 0
5:49 am 05:49 Clear with Mist and Fog 68 20 66 19 94 94 Calm 29.97 1015 4 6.43736 0 0
5:53 am 05:53 Clear with Mist and Fog 68 20 66 18.9 93 93 Calm 29.96 1015 4 6.43736 0 0
6:29 am 06:29 Sunny with Mist and Fog 67 19.4 66 18.9 97 97 Calm 29.98 1015 2 3.21868 0 0
6:53 am 06:53 Sunny with Mist and Fog 68 20 66 18.9 93 93 Calm 29.97 1015 2.5 4.02335 0 0
7:18 am 07:18 Sunny with Mist and Fog 70 21.1 67 19.4 90 90 Calm 29.98 1015 3 4.82802 0 0
7:53 am 07:53 Hazy 75 23.9 68 20 79 79 Calm 29.98 1015 5 8.0467 0 0
8:53 am 08:53 Sunny 78 25.6 68 20 71 71 Calm 29.99 1016 9 14.48406 0 0
9:53 am 09:53 Sunny 83 28.3 70 21.1 65 65 Calm 29.99 1016 10 16.0934 0 0
10:53 am 10:53 Sunny 86 30 70 21.1 59 59 Calm 29.99 1016 10 16.0934 0 0
11:53 am 11:53 Sunny 89 31.7 71 21.7 55 55 Calm 29.99 1016 10 16.0934 0 0
12:53 pm 12:53 Sunny 90 32.2 69 20.6 50 50 Calm 29.98 1015 10 16.0934 0 0
1:53 pm 13:53 Sunny 92 33.3 68 20 46 46 Calm 29.96 1015 10 16.0934 0 0
2:53 pm 14:53 Sunny 93 33.9 66 18.9 41 41 Calm 29.95 1014 10 16.0934 0 0
3:53 pm 15:53 Partly Cloudy 94 34.4 67 19.4 41 41 ENE 3 6 29.93 1014 10 16.0934 0 0
4:53 pm 16:53 Mostly Sunny 94 34.4 66 18.9 40 40 E 3 6 29.92 1013 10 16.0934 0 0
5:53 pm 17:53 Cloudy 91 32.8 71 21.7 52 52 ESE 3 6 29.9 1013 10 16.0934 0 0
6:53 pm 18:53 Mostly Sunny 84 28.9 73 22.8 70 70 E 6 9 29.9 1013 10 16.0934 0 0
7:48 pm 19:48 Mostly Cloudy with Thunderstorms 86 30 70 21 59 59 E 6 9 29.89 1012 10 16.0934 0 0
7:53 pm 19:53 Mostly Cloudy with Thunderstorms 86 30 70 21.1 59 59 E 5 7 29.91 1013 10 16.0934 0 0
8:07 pm 20:07 Mostly Cloudy 82 27.8 73 22.8 74 74 Calm 29.9 1012 10 16.0934 0 0
8:25 pm 20:25 Mostly Cloudy with Thunderstorms 82 27.8 72 22.2 72 72 WSW 5 7 29.91 1013 10 16.0934 0.001 0.001
8:53 pm 20:53 Cloudy with Nearby Thunderstorms 81 27.2 69 20.6 67 67 WSW 6 9 29.94 1014 10 16.0934 0.001 0.001
9:05 pm 21:05 Mostly Cloudy 80 26.7 70 21.1 71 71 Calm 29.93 1014 10 16.0934 0 0
9:20 pm 21:20 Mostly Cloudy with Nearby Thunderstorms 79 26.1 70 21.1 74 74 VRB 5 7 29.93 1014 10 16.0934 0.001 0.001
9:38 pm 21:38 Partly Cloudy 78 25.6 70 21.1 76 76 Calm 29.93 1014 10 16.0934 0.001 0.001
9:53 pm 21:53 Partly Cloudy 78 25.6 71 21.7 79 79 N 6 9 29.96 1014 10 16.0934 0.001 0.001
10:53 pm 22:53 Clear 77 25 70 21.1 79 79 Calm 29.96 1015 10 16.0934 0 0
11:53 pm 23:53 Mostly Clear 75 23.9 71 21.7 88 88 Calm 29.96 1015 10 16.0934 0 0

Powered by AerisWeather